Location: Ethel Rock
(53.4667°N, 4.5667°W)
Time: 01:26:07
(UTC+00:00)

Cosmos 1980 Rocket - Pass Details

Date: 24 October 2020
Orbit: 831 x 848 km, 71.0° (Epoch: 26 November)

Event Time Altitude Azimuth Distance (km) Brightness Sun altitude
Exits shadow 05:35:32 - 327° (NNW) 3,312 5.0 -13.5°
Reaches altitude 10° 05:37:47 10° 326° (NW) 2,450 4.3 -13.2°
Maximum altitude 05:43:24 78° 242° (WSW) 856 2.1 -12.4°
Drops below altitude 10° 05:48:59 10° 156° (SSE) 2,436 5.0 -11.6°
Sets 05:51:24 0° 156° (SSE) 3,368 5.8 -11.2°
